This is the latest recevied weather packets stored in our database for station/object K8WEH. If no packets are shown the sender has not sent any weather packets the latest 10 day(s).
| Time | Temp. | Humidity | Pressure | Rain* | Wind** | Luminosity | Snow |
|---|---|---|---|---|---|---|---|
| 1777485055 | 17.22° C | 64% | 1009.5 hPa | 0 mm | - | - | - |
| 1777484755 | 17.78° C | 51% | 1009.2 hPa | 0 mm | - | - | - |
| 1777484453 | 17.22° C | 52% | 1009.1 hPa | 0 mm | - | - | - |
| 1777484154 | 17.22° C | 52% | 1009.1 hPa | 0 mm | - | - | - |
| 1777483859 | 17.78° C | 54% | 1009.2 hPa | 0 mm | - | - | - |
| 1777483553 | 17.78° C | 54% | 1009.2 hPa | 0 mm | - | - | - |
| 1777483254 | 17.78° C | 53% | 1009.1 hPa | 0 mm | - | - | - |
| 1777482957 | 17.78° C | 56% | 1009.1 hPa | 0 mm | - | - | - |
| 1777482652 | 17.78° C | 56% | 1009.1 hPa | 0 mm | - | - | - |
| 1777482353 | 17.78° C | 45% | 1009.2 hPa | 0 mm | - | - | - |
| 1777482051 | 17.78° C | 45% | 1009.4 hPa | 0 mm | - | - | - |
| 1777481750 | 17.22° C | 44% | 1009.3 hPa | 0.25 mm | - | - | - |
| 1777481449 | 17.22° C | 42% | 1009.5 hPa | 0.51 mm | - | - | - |
| 1777481157 | 17.22° C | 45% | 1009.5 hPa | 1.02 mm | - | - | - |
| 1777480848 | 17.22° C | 39% | 1009.6 hPa | 1.52 mm | - | - | - |
| 1777480548 | 17.22° C | 37% | 1009.7 hPa | 2.29 mm | - | - | - |
| 1777480249 | 17.22° C | 40% | 1009.8 hPa | 2.29 mm | - | - | - |
| 1777479946 | 16.67° C | 41% | 1009.8 hPa | 2.54 mm | - | - | - |
| 1777479646 | 16.67° C | 42% | 1009.9 hPa | 2.54 mm | - | - | - |
| 1777479361 | 16.67° C | 44% | 1010 hPa | 2.54 mm | - | - | - |
| 1777479045 | 16.67° C | 47% | 1010 hPa | 2.54 mm | - | - | - |
| 1777478745 | 16.67° C | 48% | 1010 hPa | 2.54 mm | - | - | - |
| 1777478447 | 16.67° C | 52% | 1010 hPa | 2.54 mm | - | - | - |
| 1777478146 | 16.67° C | 53% | 1010.1 hPa | 2.29 mm | - | - | - |
| 1777477845 | 17.22° C | 55% | 1010 hPa | 2.03 mm | - | - | - |
* Rain latest hour (hover to see other rain measurements)
** Current wind speed in m/s (hover to see current wind gust speed)